Overview Statistics Trail Chart Weather Telemetry Raw packets
 

This is the latest recevied weather packets stored in our database for station/object TA2LKM-11. If no packets are shown the sender has not sent any weather packets the latest 10 day(s).

<< 31 32 33 34 35 36 37 >>
Time Temp. Humidity Pressure Rain* Wind** Luminosity Snow
1788281516 28.89° C 46% 1013 hPa - - - -
1788280615 29.44° C 44% 1013 hPa - - - -
1788280491 29.44° C 44% 1013 hPa - - - -
1788279656 30° C 42% 1012.8 hPa - - - -
1788278752 30.56° C 40% 1012.7 hPa - - - -
1788278635 30.56° C 40% 1012.9 hPa - - - -
1788277734 31.11° C 38% 1012.8 hPa - - - -
1788276834 31.67° C 37% 1012.8 hPa - - - -
1788275933 31.67° C 44% 1012.8 hPa - - - -
1788275031 31.67° C 42% 1012.7 hPa - - - -
1788274130 32.22° C 42% 1012.7 hPa - - - -
1788274042 32.22° C 42% 1012.7 hPa - - - -
1788273142 32.22° C 40% 1012.7 hPa - - - -
1788273049 32.22° C 40% 1012.7 hPa - - - -
1788272148 32.78° C 40% 1012.7 hPa - - - -
1788271247 32.78° C 42% 1012.8 hPa - - - -
1788270346 32.78° C 42% 1012.8 hPa - - - -
1788269440 32.78° C 45% 1012.8 hPa - - - -
1788268540 32.78° C 46% 1012.8 hPa - - - -
1788268265 32.78° C 46% 1012.8 hPa - - - -
1788267365 33.33° C 44% 1013 hPa - - - -
1788266467 33.89° C 45% 1013.1 hPa - - - -
1788265563 33.33° C 47% 1013.3 hPa - - - -
1788265475 33.33° C 47% 1013.4 hPa - - - -
1788264574 33.33° C 50% 1013.5 hPa - - - -

* Rain since midnight (hover to see other rain measurements)
** Current wind speed in m/s (hover to see current wind gust speed)